Zephyrhills, FL

7:01 PM EST on February 20, 2018 (GMT -0500)
Zephyrhills Municipal

Weather History for KZPH - November, 2012

Change the Weather History Date:

Sunday, November 4, 2012

  Actual Average (KPCM) Record (KPCM)
Temperature  
Mean Temperature 68 °F -  
Max Temperature 80 °F 80 °F 92 °F (1972)
Min Temperature 57 °F 58 °F 32 °F (1966)
Cooling Degree Days 4    
Growing Degree Days 18 (Base 50)    
Moisture  
Dew Point 57 °F    
Average Humidity 79    
Maximum Humidity 100    
Minimum Humidity 30    
Precipitation  
Precipitation 0.01 in - - ()
Sea Level Pressure  
Sea Level Pressure 30.09 in    
Wind  
Wind Speed 1 mph ()    
Max Wind Speed 9 mph    
Max Gust Speed -    
Visibility 5.2 miles    
Events Fog , Rain    
Averages and records for this station are not official NWS values.
T = Trace of Precipitation, MM = Missing Value Source: Averaged Metar Reports

Daily Weather History Graph

Daily Weather History Graph

Search for Another Location

Airport or City:

Trip Planner

Search our weather history database for the weather conditions in past years. The results will help you decide how hot, cold, wet, or windy it might be!

Date:

Astronomy

Nov. 04, 2012 Rise Set
Actual Time 6:42 AM EST 5:41 PM EST
Civil Twilight 6:18 AM EST 6:05 PM EST
Nautical Twilight 5:50 AM EST 6:33 PM EST
Astronomical Twilight 5:22 AM EST 7:01 PM EST
Moon 10:22 PM EST (11/4) 11:20 AM EST (11/4)
Length of Visible Light 11h 47m
Length of Day
10h 58m
Waning Gibbous, 72% of the Moon is Illuminated
Nov 4
Waning Gibbous
Nov 6
Last Quarter
Nov 13
New
Nov 20
First Quarter
Nov 28
Full

Hourly Weather History & Observations

Time (EST) Temp. Heat Index Dew Point Humidity Pressure Visibility Wind Dir Wind Speed Gust Speed Precip Events Conditions
12:15 AM 59.0 °F - 59.0 °F 100% 30.12 in 0.8 mi Calm Calm - N/A   Overcast
12:35 AM 59.0 °F - 59.0 °F 100% 30.13 in 0.2 mi Calm Calm - N/A Fog Fog
1:15 AM 60.8 °F - 60.8 °F 100% 30.12 in 0.2 mi Calm Calm - N/A Fog Fog
1:35 AM 60.8 °F - 59.0 °F 94% 30.12 in 0.2 mi Calm Calm - N/A Fog Fog
1:55 AM 60.8 °F - 60.8 °F 100% 30.12 in 0.2 mi Calm Calm - N/A Fog Fog
1:15 AM 60.8 °F - 59.0 °F 94% 30.13 in 0.2 mi Calm Calm - N/A Fog Fog
1:35 AM 60.8 °F - 59.0 °F 94% 30.13 in 0.2 mi Calm Calm - N/A Fog Fog
1:55 AM 60.8 °F - 59.0 °F 94% 30.12 in 0.2 mi Calm Calm - N/A Fog Fog
2:15 AM 59.0 °F - 59.0 °F 100% 30.11 in 0.2 mi Calm Calm - N/A Fog Fog
2:35 AM 59.0 °F - 59.0 °F 100% 30.11 in 0.2 mi Calm Calm - N/A Fog Fog
2:55 AM 59.0 °F - 59.0 °F 100% 30.11 in 0.2 mi Calm Calm - N/A Rain Light Rain
3:15 AM 59.0 °F - 59.0 °F 100% 30.11 in 0.2 mi Calm Calm - N/A Fog Fog
3:35 AM 59.0 °F - 57.2 °F 94% 30.11 in 0.2 mi Calm Calm - N/A Fog Fog
3:55 AM 59.0 °F - 59.0 °F 100% 30.11 in 0.2 mi Calm Calm - N/A Fog Fog
4:15 AM 59.0 °F - 59.0 °F 100% 30.11 in 0.2 mi Calm Calm - N/A Fog Fog
4:35 AM 59.0 °F - 57.2 °F 94% 30.11 in 0.2 mi Calm Calm - N/A Fog Fog
4:55 AM 59.0 °F - 59.0 °F 100% 30.12 in 0.2 mi Calm Calm - N/A Fog Fog
5:15 AM 59.0 °F - 59.0 °F 100% 30.12 in 0.2 mi Calm Calm - N/A Fog Fog
5:35 AM 57.2 °F - 55.4 °F 94% 30.12 in 0.2 mi Calm Calm - N/A Fog Fog
5:55 AM 57.2 °F - 57.2 °F 100% 30.12 in 0.2 mi Calm Calm - N/A Fog Fog
6:15 AM 59.0 °F - 57.2 °F 94% 30.13 in 0.2 mi Calm Calm - N/A Fog Fog
6:35 AM 59.0 °F - 57.2 °F 94% 30.13 in 0.2 mi Calm Calm - N/A   Drizzle
6:55 AM 59.0 °F - 57.2 °F 94% 30.13 in 0.2 mi Calm Calm - N/A Fog Fog
7:15 AM 59.0 °F - 59.0 °F 100% 30.13 in 0.2 mi Calm Calm - N/A Fog Fog
7:35 AM 59.0 °F - 59.0 °F 100% 30.14 in 0.2 mi Calm Calm - N/A Fog Fog
7:55 AM 59.0 °F - 59.0 °F 100% 30.14 in 0.2 mi Calm Calm - 0.01 in Fog Fog
8:15 AM 59.0 °F - 59.0 °F 100% 30.15 in 0.2 mi Calm Calm - N/A Fog Fog
8:35 AM 59.0 °F - 59.0 °F 100% 30.15 in 0.2 mi Calm Calm - N/A Fog Fog
8:55 AM 59.0 °F - 59.0 °F 100% 30.15 in 0.5 mi Calm Calm - N/A Fog Fog
9:15 AM 60.8 °F - 60.8 °F 100% 30.15 in 1.5 mi Calm Calm - N/A   Overcast
9:35 AM 60.8 °F - 60.8 °F 100% 30.15 in 3.0 mi Calm Calm - N/A   Overcast
9:55 AM 60.8 °F - 60.8 °F 100% 30.14 in 7.0 mi Calm Calm - N/A   Mostly Cloudy
10:15 AM 64.4 °F - 62.6 °F 94% 30.14 in 10.0 mi Calm Calm - N/A   Scattered Clouds
10:35 AM 66.2 °F - 64.4 °F 94% 30.14 in 10.0 mi Calm Calm - N/A   Clear
10:55 AM 69.8 °F - 64.4 °F 83% 30.13 in 10.0 mi Calm Calm - N/A   Clear
11:15 AM 73.4 °F - 64.4 °F 73% 30.12 in 10.0 mi Calm Calm - N/A   Clear
11:35 AM 75.2 °F - 60.8 °F 61% 30.11 in 10.0 mi Calm Calm - N/A   Clear
11:55 AM 77.0 °F - 60.8 °F 57% 30.10 in 10.0 mi Calm Calm - N/A   Clear
12:15 PM 78.8 °F - 59.0 °F 51% 30.10 in 10.0 mi West 4.6 mph - N/A   Clear
12:35 PM 78.8 °F - 57.2 °F 47% 30.09 in 10.0 mi WSW 5.8 mph - N/A   Clear
12:55 PM 80.6 °F 80.8 °F 57.2 °F 45% 30.08 in 10.0 mi Calm Calm - N/A   Clear
1:15 PM 80.6 °F 80.3 °F 53.6 °F 39% 30.07 in 10.0 mi SW 6.9 mph - N/A   Clear
1:35 PM 80.6 °F 80.3 °F 53.6 °F 39% 30.06 in 10.0 mi SW 8.1 mph - N/A   Clear
1:55 PM 80.6 °F - 51.8 °F 37% 30.05 in 10.0 mi South 8.1 mph - N/A   Clear
2:15 PM 80.6 °F - 51.8 °F 37% 30.05 in 10.0 mi SSW 8.1 mph - N/A   Clear
2:35 PM 80.6 °F - 51.8 °F 37% 30.04 in 10.0 mi SW 9.2 mph - N/A   Clear
2:55 PM 80.6 °F - 46.4 °F 30% 30.03 in 10.0 mi South 8.1 mph - N/A   Clear
3:15 PM 80.6 °F - 48.2 °F 32% 30.02 in 10.0 mi SW 8.1 mph - N/A   Clear
3:35 PM 78.8 °F - 50.0 °F 36% 30.03 in 10.0 mi Calm Calm - N/A   Clear
3:55 PM 78.8 °F - 50.0 °F 36% 30.02 in 10.0 mi Calm Calm - N/A   Clear
4:15 PM 78.8 °F - 51.8 °F 39% 30.03 in 10.0 mi Calm Calm - N/A   Clear
4:35 PM 77.0 °F - 50.0 °F 39% 30.02 in 10.0 mi SW 3.5 mph - N/A   Clear
4:55 PM 77.0 °F - 51.8 °F 41% 30.02 in 10.0 mi Calm Calm - N/A   Clear
5:15 PM 73.4 °F - 51.8 °F 47% 30.02 in 10.0 mi Calm Calm - N/A   Clear
5:35 PM 71.6 °F - 53.6 °F 53% 30.03 in 10.0 mi Calm Calm - N/A   Clear
5:55 PM 69.8 °F - 53.6 °F 56% 30.03 in 10.0 mi Calm Calm - N/A   Clear
6:15 PM 69.8 °F - 53.6 °F 56% 30.04 in 10.0 mi Calm Calm - N/A   Clear
6:35 PM 68.0 °F - 53.6 °F 60% 30.04 in 10.0 mi NW 3.5 mph - N/A   Clear
6:55 PM 68.0 °F - 59.0 °F 73% 30.04 in 10.0 mi Calm Calm - N/A   Clear
7:15 PM 68.0 °F - 59.0 °F 73% 30.05 in 10.0 mi Calm Calm - N/A   Clear
7:35 PM 66.2 °F - 59.0 °F 78% 30.05 in 10.0 mi Calm Calm - N/A   Clear
7:55 PM 66.2 °F - 60.8 °F 83% 30.05 in 10.0 mi Calm Calm - N/A   Clear
8:15 PM 64.4 °F - 60.8 °F 88% 30.05 in 10.0 mi Calm Calm - N/A   Clear
8:35 PM 64.4 °F - 60.8 °F 88% 30.05 in 10.0 mi Calm Calm - N/A   Clear
8:55 PM 62.6 °F - 59.0 °F 88% 30.06 in 10.0 mi Calm Calm - N/A   Clear
9:15 PM 60.8 °F - 59.0 °F 94% 30.05 in 7.0 mi Calm Calm - N/A   Clear
9:35 PM 60.8 °F - 59.0 °F 94% 30.05 in 5.0 mi Calm Calm - N/A   Clear
9:55 PM 60.8 °F - 59.0 °F 94% 30.05 in 4.0 mi Calm Calm - N/A   Clear
10:15 PM 59.0 °F - 57.2 °F 94% 30.05 in 4.0 mi Calm Calm - N/A   Clear
10:35 PM 60.8 °F - 59.0 °F 94% 30.05 in 1.5 mi Calm Calm - N/A   Mist
10:55 PM 59.0 °F - 57.2 °F 94% 30.05 in 1.5 mi Calm Calm - N/A   Mist